Norfolk, VA

11:53 AM EDT on May 26, 2017 (GMT -0400)
Norfolk International

Weather History for KORF - April, 2013

Change the Weather History Date:

Thursday, April 18, 2013

  Actual Average Record
Temperature  
Mean Temperature 71 °F 59 °F  
Max Temperature 79 °F 68 °F 95 °F (1896)
Min Temperature 62 °F 50 °F 28 °F (1875)
Degree Days  
Heating Degree Days 0 7  
Month to date heating degree days 110 168  
Since 1 July heating degree days 3097 3229  
Cooling Degree Days 6 1  
Month to date cooling degree days 56 18  
Year to date cooling degree days 56 25  
Growing Degree Days 20 (Base 50)    
Moisture  
Dew Point 59 °F    
Average Humidity 68    
Maximum Humidity 90    
Minimum Humidity 45    
Precipitation  
Precipitation 0.00 in 0.12 in 0.99 in (2000)
Month to date precipitation 1.14 2.06  
Year to date precipitation 11.20 12.26  
Snow  
Snow 0.00 in 0.00 in 0.00 in (2002)
Month to date snowfall 0.0 0.0  
Since 1 July snowfall 1.8 5.8  
Snow Depth 0.00 in    
Sea Level Pressure  
Sea Level Pressure 30.17 in    
Wind  
Wind Speed 9 mph (SSE)    
Max Wind Speed 18 mph    
Max Gust Speed 25 mph    
Visibility 10 miles    
Events      
T = Trace of Precipitation, MM = Missing Value Source: NWS Daily Summary

Daily Weather History Graph

Daily Weather History Graph

Search for Another Location

Airport or City:

Trip Planner

Search our weather history database for the weather conditions in past years. The results will help you decide how hot, cold, wet, or windy it might be!

Date:

Astronomy

Apr. 18, 2013 Rise Set
Actual Time 6:26 AM EDT 7:42 PM EDT
Civil Twilight 5:59 AM EDT 8:09 PM EDT
Nautical Twilight 5:27 AM EDT 8:41 PM EDT
Astronomical Twilight 4:53 AM EDT 9:15 PM EDT
Moon 12:37 PM EDT (4/18) 1:53 AM EDT (4/18)
Length of Visible Light 14h 09m
Length of Day
13h 15m
First Quarter, 51% of the Moon is Illuminated
Apr 18
First Quarter
Apr 25
Full
May 2
Last Quarter
May 9
New
May 18
First Quarter

Hourly Weather History & Observations

Time (EDT) Temp. Dew Point Humidity Pressure Visibility Wind Dir Wind Speed Gust Speed Precip Events Conditions
12:51 AM 69.1 °F 55.9 °F 63% 30.21 in 10.0 mi South 6.9 mph - N/A   Overcast
1:51 AM 68.0 °F 57.0 °F 68% 30.19 in 10.0 mi SSE 5.8 mph - N/A   Overcast
2:51 AM 66.9 °F 59.0 °F 76% 30.18 in 10.0 mi South 6.9 mph - N/A   Overcast
3:51 AM 64.9 °F 59.0 °F 81% 30.19 in 10.0 mi SE 4.6 mph - N/A   Mostly Cloudy
4:51 AM 63.0 °F 59.0 °F 87% 30.19 in 10.0 mi SE 4.6 mph - N/A   Clear
5:51 AM 62.1 °F 59.0 °F 90% 30.19 in 10.0 mi SE 3.5 mph - N/A   Clear
6:51 AM 63.0 °F 59.0 °F 87% 30.21 in 10.0 mi SSE 4.6 mph - N/A   Mostly Cloudy
7:51 AM 64.9 °F 59.0 °F 81% 30.22 in 10.0 mi SSE 6.9 mph - N/A   Clear
8:51 AM 70.0 °F 59.0 °F 68% 30.23 in 10.0 mi South 9.2 mph - N/A   Clear
9:51 AM 72.0 °F 59.0 °F 64% 30.24 in 10.0 mi SSE 10.4 mph 17.3 mph N/A   Partly Cloudy
10:09 AM 73.4 °F 60.8 °F 65% 30.24 in 10.0 mi SSW 9.2 mph - N/A   Mostly Cloudy
10:28 AM 71.6 °F 59.0 °F 64% 30.24 in 10.0 mi South 6.9 mph - N/A   Scattered Clouds
10:51 AM 73.9 °F 60.1 °F 62% 30.24 in 10.0 mi SSE 9.2 mph - N/A   Scattered Clouds
11:51 AM 75.9 °F 57.9 °F 54% 30.21 in 10.0 mi SSE 13.8 mph 17.3 mph N/A   Clear
12:51 PM 78.1 °F 57.9 °F 50% 30.19 in 10.0 mi South 11.5 mph 20.7 mph N/A   Partly Cloudy
1:51 PM 77.0 °F 57.9 °F 52% 30.17 in 10.0 mi SSE 12.7 mph 20.7 mph N/A   Mostly Cloudy
2:51 PM 78.1 °F 55.9 °F 46% 30.16 in 10.0 mi South 15.0 mph 20.7 mph N/A   Partly Cloudy
3:51 PM 78.1 °F 57.0 °F 48% 30.14 in 10.0 mi SSE 12.7 mph - N/A   Partly Cloudy
4:51 PM 75.0 °F 57.0 °F 53% 30.13 in 10.0 mi SSE 17.3 mph - N/A   Clear
5:51 PM 75.0 °F 57.9 °F 55% 30.12 in 10.0 mi SSE 11.5 mph 23.0 mph N/A   Clear
6:51 PM 72.0 °F 57.9 °F 61% 30.10 in 10.0 mi SSE 13.8 mph 21.9 mph N/A   Clear
7:51 PM 69.1 °F 57.9 °F 68% 30.11 in 10.0 mi SSE 11.5 mph - N/A   Clear
8:51 PM 66.9 °F 59.0 °F 76% 30.11 in 10.0 mi SSE 9.2 mph - N/A   Clear
9:51 PM 66.9 °F 60.1 °F 79% 30.12 in 10.0 mi SSE 6.9 mph - N/A   Clear
10:51 PM 66.0 °F 60.1 °F 81% 30.11 in 10.0 mi South 5.8 mph - N/A   Clear
11:51 PM 66.0 °F 60.1 °F 81% 30.08 in 10.0 mi South 8.1 mph - N/A   Clear